Location: Centerville
(32.8776°N, 96.6203°W)
Time: 21:45:12
(UTC+00:00)

Delta 128 - Pass Details

Date: 01 November 2021
Orbit: 608 x 1216 km, 28.0° (Epoch: 27 November)

Event Time Altitude Azimuth Distance (km) Brightness Sun altitude
Exits shadow 10:54:36 - 207° (SSW) 3,491 7.2 -23.5°
Reaches altitude 10° 10:56:29 10° 198° (SSW) 3,034 6.9 -23.2°
Maximum altitude 11:01:59 22° 151° (SSE) 2,364 6.8 -22.0°
Drops below altitude 10° 11:07:41 10° 106° (ESE) 3,154 8.3 -20.8°
Sets 11:11:19 0° 92° (E) 4,109 9.4 -20.0°
